Location: Ocean City
(38.3360°N, 75.0850°W)
Time: 11:54:11
(UTC-04:00)

EO-79 - Visible Passes

Search period start: 24 May 2019 00:00
Search period end: 03 June 2019 00:00
Orbit: 592 x 610 km, 97.9° (Epoch: 23 May)

Date Brightness Start Highest point End Pass type
(mag) Time Alt. Az. Time Alt. Az. Time Alt. Az.
24 May ? 00:30:18 10° NE 00:30:46 12° ENE 00:30:46 12° ENE visible
24 May ? 02:05:02 10° N 02:07:32 28° NW 02:07:32 28° NW visible
25 May ? 00:41:16 10° NE 00:42:24 15° NE 00:42:24 15° NE visible
25 May ? 02:16:45 10° NNW 02:19:11 24° NW 02:19:11 24° NW visible
26 May ? 00:52:24 10° NE 00:54:03 20° NE 00:54:03 20° NE visible
26 May ? 02:28:33 10° NNW 02:30:49 19° NW 02:30:49 19° NW visible
27 May ? 01:03:39 10° NNE 01:05:41 25° NE 01:05:41 25° NE visible
27 May ? 02:40:33 10° NNW 02:42:28 15° WNW 02:42:28 15° WNW visible
28 May ? 01:15:00 10° NNE 01:17:20 31° NE 01:17:20 31° NE visible
28 May ? 02:52:55 10° NW 02:54:06 11° WNW 02:54:06 11° WNW visible
29 May ? 01:26:24 10° NNE 01:28:58 36° NNE 01:28:58 36° NNE visible
30 May ? 01:37:52 10° N 01:40:36 40° N 01:40:36 40° N visible
31 May ? 01:49:24 10° N 01:52:14 38° NNW 01:52:14 38° NNW visible
01 Jun ? 00:26:36 10° ENE 00:27:05 12° ENE 00:27:05 12° ENE visible
01 Jun ? 02:01:00 10° N 02:03:52 33° NW 02:03:52 33° NW visible
02 Jun ? 00:37:28 10° NE 00:38:43 15° ENE 00:38:43 15° ENE visible
02 Jun ? 02:12:40 10° N 02:15:30 27° NW 02:15:30 27° NW visible
